Date,TemperatureHighF,TemperatureAvgF,TemperatureLowF,DewpointHighF,DewpointAvgF,DewpointLowF,HumidityHigh,HumidityAvg,HumidityLow,PressureMaxIn,PressureMinIn,WindSpeedMaxMPH,WindSpeedAvgMPH,GustSpeedMaxMPH,PrecipitationSumIn
2014-1-1,28.6,21.1,15.4,5.0,-2.8,-7.8,53,35,21,29.60,29.40,4,1,11,0.00
2014-1-2,19.2,10.9,0.1,11.7,4.5,-6.6,80,75,53,29.57,29.05,8,3,12,0.00
2014-1-3,12.9,4.2,-1.5,5.7,-4.9,-13.6,75,65,52,29.62,28.93,8,3,14,0.00
2014-1-4,25.0,12.6,-2.9,8.9,-8.5,-29.6,60,42,10,29.71,29.49,11,2,17,0.00
2014-1-5,38.5,30.0,21.4,34.5,14.4,1.1,99,56,23,29.54,29.16,5,1,10,0.11
2014-1-6,57.7,42.0,25.3,57.5,38.2,6.0,99,88,43,29.16,28.54,13,2,21,0.43
2014-1-7,25.2,11.5,5.2,9.3,-17.8,-35.5,58,26,10,29.46,28.75,8,3,22,0.00
2014-1-8,20.8,11.9,3.4,-5.6,-12.2,-20.0,46,33,17,29.68,29.44,5,1,11,0.00
2014-1-9,30.6,20.0,14.0,0.1,-4.5,-13.0,49,35,14,29.86,29.64,4,1,8,0.00
2014-1-10,36.1,27.5,14.5,35.9,20.2,-0.9,99,75,47,29.82,29.49,4,0,8,0.02
2014-1-11,61.0,49.9,34.5,60.7,49.6,34.3,99,99,99,29.49,28.53,14,3,26,0.72
2014-1-12,53.8,41.9,33.3,53.5,30.1,19.8,99,65,44,29.21,28.53,9,3,18,0.05
2014-1-13,51.8,40.9,30.9,40.1,26.3,-8.6,75,58,29,29.35,29.13,9,2,17,0.00
2014-1-14,49.1,46.6,41.5,46.9,44.2,40.1,99,92,72,29.13,28.86,8,2,18,0.58
2014-1-15,48.6,39.3,32.0,41.3,34.9,30.2,99,86,54,29.26,29.00,5,1,11,0.01
2014-1-16,39.6,35.4,31.5,39.3,35.1,31.2,99,99,99,29.16,29.07,2,0,4,0.00
2014-1-17,44.8,36.7,30.6,36.8,26.2,13.5,99,70,28,29.22,29.13,5,1,11,0.00
2014-1-18,33.4,32.0,30.9,33.2,30.5,21.5,99,94,67,29.15,28.85,12,0,3,0.00
2014-1-19,32.5,29.2,26.4,31.4,25.4,18.9,99,86,68,28.96,28.77,0,0,0,0.06
2014-1-20,40.8,32.8,22.8,26.3,19.2,-2.4,78,58,32,29.11,28.74,8,1,17,0.09
2014-1-21,22.8,13.4,8.1,2.2,-4.5,-19.6,73,47,19,29.27,29.08,5,2,10,0.00
2014-1-22,17.8,9.0,4.8,1.3,-9.3,-19.8,73,47,18,29.11,28.87,6,2,13,0.00
2014-1-23,21.2,9.8,1.0,-9.0,-17.2,-27.6,42,30,10,29.38,29.11,5,1,11,0.00
2014-1-24,17.6,10.2,4.3,-9.3,-17.6,-31.0,46,28,10,29.47,29.26,6,2,13,0.01
2014-1-25,35.1,24.1,12.4,21.0,8.5,-12.4,80,52,30,29.26,28.57,12,3,25,0.00
2014-1-26,22.8,17.1,11.8,12.2,-9.2,-29.8,65,34,10,29.11,28.58,8,2,17,0.00
2014-1-27,43.2,28.3,17.4,34.8,9.3,-24.6,81,50,10,29.23,28.77,9,2,20,0.05
2014-1-28,18.1,14.2,8.8,-11.3,-24.4,-35.5,30,16,10,29.52,29.22,6,2,16,0.00
2014-1-29,25.2,17.6,12.0,1.3,-18.2,-30.4,56,23,10,29.44,29.20,6,1,12,0.00
2014-1-30,30.7,19.6,9.7,5.3,-14.4,-29.1,56,23,10,29.65,29.40,6,1,11,0.00
2014-1-31,41.5,31.6,18.3,19.3,2.3,-17.1,74,35,10,29.44,29.24,5,1,10,0.00
2014-2-1,48.9,36.9,30.6,27.5,10.9,-5.2,73,37,12,29.57,29.26,100,1,101,0.00
2014-2-2,54.7,42.0,35.4,40.0,33.3,25.8,99,74,33,29.29,29.10,4,1,8,0.04
2014-2-3,37.6,30.2,23.0,28.0,22.5,11.5,88,74,42,29.52,29.29,4,1,7,0.01
2014-2-4,35.8,26.6,17.6,20.8,15.3,11.2,89,64,37,29.68,29.50,3,0,6,0.11
2014-2-5,28.9,25.7,22.5,25.9,20.9,16.5,88,82,67,29.54,28.85,4,1,6,0.00
2014-2-6,28.8,20.9,15.3,18.9,7.2,-3.9,86,58,28,29.48,29.17,3,0,5,0.01
2014-2-7,29.8,21.6,13.3,2.1,-3.6,-12.2,51,35,16,29.49,29.37,5,1,10,0.00
2014-2-8,28.0,21.5,12.0,-0.7,-15.8,-23.8,42,21,10,29.52,29.34,3,1,6,0.00
2014-2-9,31.1,25.3,18.9,15.8,9.0,-16.0,75,51,17,29.39,29.17,4,1,8,0.00
2014-2-10,28.9,21.0,14.2,15.9,1.0,-11.1,77,46,19,29.43,29.13,6,1,13,0.00
2014-2-11,24.8,16.0,8.2,-0.3,-12.0,-25.3,57,31,10,29.65,29.43,4,1,11,0.00
2014-2-12,26.8,17.7,1.8,-8.7,-19.0,-28.6,45,21,10,29.78,29.62,4,1,8,0.00
2014-2-13,32.2,23.9,15.6,31.9,16.5,-9.4,99,76,31,29.62,28.23,8,2,13,0.05
2014-2-14,32.2,30.3,26.4,31.9,27.5,18.8,99,90,67,28.97,28.09,0,0,0,0.22
2014-2-15,32.5,28.0,23.7,28.0,23.4,18.1,99,83,68,29.08,28.73,0,0,0,0.01
2014-2-16,29.8,23.3,18.5,27.6,8.6,-2.2,99,57,27,29.20,28.72,0,0,0,0.00
2014-2-17,52.2,18.1,10.6,51.9,-16.7,-29.3,99,23,10,29.45,29.20,6,1,11,0.00
2014-2-18,26.6,17.9,8.6,20.4,2.8,-19.9,77,54,22,29.40,28.94,4,0,5,0.00
2014-2-19,34.9,28.1,18.9,31.9,22.1,12.0,99,79,49,29.16,28.77,4,0,12,0.02
2014-2-20,50.0,39.1,32.4,33.9,21.2,-5.6,99,60,10,29.27,28.89,5,1,14,0.34
2014-2-21,38.8,36.1,33.3,38.6,35.8,32.5,99,99,95,29.21,28.73,5,2,8,0.17
2014-2-22,52.0,41.8,32.2,36.1,20.4,-4.4,99,54,10,29.03,28.90,9,2,20,0.06
2014-2-23,51.6,44.5,37.8,22.9,14.1,5.2,52,30,15,29.05,28.82,4,1,11,0.00
2014-2-24,41.2,31.0,22.1,19.1,-0.0,-15.8,42,27,12,29.00,28.80,10,3,21,0.00
2014-2-25,28.0,21.4,16.9,0.9,-2.2,-12.4,47,35,18,29.04,28.91,6,2,12,0.00
2014-2-26,30.2,18.8,9.9,3.2,-9.8,-30.4,52,30,10,28.99,28.80,7,1,11,0.00
2014-2-27,28.8,16.6,3.9,16.3,-8.8,-28.4,67,34,10,28.97,28.62,8,1,17,0.00
2014-2-28,23.4,14.4,5.9,-14.9,-24.7,-33.7,35,17,10,29.48,28.97,7,2,12,0.00
2014-3-1,35.8,22.5,5.0,16.5,-9.0,-31.1,55,27,10,29.49,29.14,8,2,13,0.00
2014-3-2,39.7,33.7,30.4,15.4,11.8,7.5,49,40,31,29.14,29.01,4,1,9,0.00
2014-3-3,29.3,16.8,11.1,11.1,-15.3,-22.8,47,23,14,29.34,29.03,2,1,5,0.00
2014-3-4,29.7,18.4,4.5,-10.3,-18.4,-27.7,44,21,10,29.43,29.29,5,1,8,0.00
2014-3-5,27.7,22.8,15.6,15.1,5.8,-12.9,70,49,19,29.54,29.27,4,1,6,0.00
2014-3-6,28.9,18.2,7.0,0.8,-18.2,-30.0,51,21,10,29.68,29.53,4,1,8,0.00
2014-3-7,38.1,25.5,10.6,18.2,2.7,-10.5,61,39,20,29.55,29.00,5,1,9,0.00
2014-3-8,55.8,39.1,25.2,21.7,12.9,-2.6,69,41,10,29.00,28.75,4,1,8,0.00
2014-3-9,42.3,34.0,26.8,19.9,-2.0,-15.3,54,24,10,29.00,28.91,6,2,14,0.00
2014-3-10,43.0,35.0,27.7,20.8,11.3,-7.2,66,39,19,28.95,28.68,4,1,9,0.00
2014-3-11,58.3,45.6,34.2,33.6,16.4,-2.9,93,40,10,28.78,28.56,8,2,15,0.00
2014-3-12,49.6,41.5,35.4,37.7,25.5,12.9,99,58,27,28.78,28.08,3,1,8,0.39
2014-3-13,35.4,20.2,14.0,35.2,7.5,-17.3,99,63,22,29.00,28.05,4,0,8,0.06
2014-3-14,37.8,25.2,10.8,18.9,-6.4,-20.7,51,27,10,29.22,28.96,10,2,19,0.00
2014-3-15,56.7,43.0,35.2,36.2,20.8,0.1,88,44,10,28.97,28.71,9,2,17,0.06
2014-3-16,37.0,29.5,23.5,12.6,-10.4,-23.8,36,18,10,29.24,28.96,6,2,16,0.00
2014-3-17,30.2,21.7,14.4,-11.2,-23.7,-32.0,21,12,10,29.22,29.08,5,2,8,0.00
2014-3-18,39.7,26.6,14.2,6.7,-12.7,-28.6,44,19,10,29.40,29.20,4,2,7,0.00
2014-3-19,45.9,33.1,20.1,21.5,6.2,-12.6,66,39,10,29.44,29.04,7,2,14,0.00
2014-3-20,51.3,40.0,32.5,46.9,28.2,11.6,99,68,22,29.06,28.68,8,2,17,0.33
2014-3-21,43.2,36.8,29.3,16.9,12.4,6.0,52,37,22,29.10,28.81,9,3,16,0.00
2014-3-22,55.8,38.5,24.1,32.6,15.3,3.4,65,42,13,29.12,28.72,14,2,24,0.02
2014-3-23,42.4,34.3,24.8,17.9,0.1,-19.2,54,28,10,29.11,28.95,4,1,11,0.00
2014-3-24,32.9,23.4,14.2,-10.0,-18.1,-25.7,29,16,10,29.22,29.08,7,2,13,0.00
2014-3-25,37.9,27.6,16.7,7.1,-7.8,-18.5,45,24,10,29.20,28.96,7,1,16,0.00
2014-3-26,34.7,29.0,22.1,10.0,-6.8,-26.2,45,24,10,29.10,28.67,12,4,21,0.00
2014-3-27,44.6,30.6,16.9,4.5,-15.6,-27.0,29,13,10,29.38,29.09,7,2,15,0.00
2014-3-28,58.3,44.1,32.9,51.0,31.6,4.3,99,65,29,29.32,29.02,8,2,22,0.05
2014-3-29,52.5,44.6,38.8,50.6,39.9,30.1,99,85,50,29.31,29.03,8,3,14,0.65
2014-3-30,40.5,38.2,34.5,40.2,38.0,34.3,99,99,99,29.03,28.69,7,3,11,1.85
2014-3-31,39.0,35.5,32.9,38.4,32.9,25.7,99,91,65,29.07,28.75,5,2,11,0.57
2014-4-1,55.8,42.5,32.0,26.3,22.0,15.8,70,47,21,29.17,29.06,5,2,12,0.00
2014-4-2,59.4,46.2,33.4,28.2,18.9,-5.4,65,38,10,29.19,29.06,7,1,12,0.00
2014-4-3,57.4,47.0,37.0,28.5,9.6,-4.4,57,26,10,29.19,28.94,5,1,11,0.00
2014-4-4,48.4,40.5,35.2,35.5,23.0,16.1,99,52,29,29.21,28.93,8,3,11,0.15
2014-4-5,51.3,41.5,35.4,47.6,29.7,14.0,99,69,25,29.00,28.76,10,2,23,0.14
2014-4-6,58.5,43.5,30.7,20.3,6.9,-6.7,60,28,10,29.25,29.00,4,1,11,0.00
2014-4-7,59.5,48.4,37.8,41.1,10.7,-5.1,95,26,10,29.29,28.93,11,2,18,0.02
2014-4-8,64.4,52.8,42.4,61.0,47.5,30.1,99,84,46,28.94,28.37,9,2,17,0.34
2014-4-9,59.2,47.4,37.8,34.9,17.4,-12.2,77,39,10,29.04,28.58,8,2,14,0.00
2014-4-10,61.2,47.1,32.4,29.9,9.2,-7.8,49,24,10,29.22,29.04,12,2,21,0.00
2014-4-11,69.8,57.2,48.2,49.2,37.1,28.8,76,49,24,29.09,28.97,7,1,14,0.01
2014-4-12,68.9,56.8,43.2,48.1,25.9,4.8,99,47,10,29.27,29.03,7,1,18,0.05
2014-4-13,69.8,56.7,46.0,48.3,36.4,15.8,96,49,14,29.32,29.06,8,2,16,0.04
2014-4-14,75.4,65.4,59.0,56.0,50.1,43.7,83,60,38,29.08,28.93,13,4,31,0.14
2014-4-15,65.8,59.5,39.6,64.3,58.4,39.3,99,96,77,28.97,28.62,16,5,35,2.00
2014-4-16,44.2,36.0,29.1,39.3,16.7,-9.3,99,53,11,29.65,28.81,7,2,15,0.38
2014-4-17,43.5,34.3,27.0,21.5,13.4,5.3,69,43,21,29.83,29.65,8,3,12,0.00
2014-4-18,45.9,36.7,26.4,30.0,24.7,20.4,89,64,37,29.70,29.29,6,2,8,0.00
2014-4-19,64.0,49.2,35.1,31.8,17.5,0.5,84,39,10,29.48,29.23,8,2,17,0.00
2014-4-20,56.1,46.1,33.8,23.6,8.0,-6.9,62,26,10,29.56,29.39,7,2,11,0.00
2014-4-21,71.4,53.0,34.0,32.6,14.4,-1.9,59,28,10,29.39,28.90,8,2,13,0.00
2014-4-22,75.6,59.2,46.9,52.0,30.8,11.2,95,44,10,28.91,28.54,8,2,17,0.02
2014-4-23,54.3,50.4,45.1,53.5,42.7,26.1,99,78,43,28.70,28.49,8,2,16,0.54
2014-4-24,58.1,48.3,39.4,26.0,8.0,-3.2,47,22,10,28.99,28.69,8,4,20,0.00
2014-4-25,65.8,52.4,39.4,17.7,11.2,-0.2,40,22,10,29.07,28.88,7,2,14,0.00
2014-4-26,49.5,43.9,40.8,45.4,37.1,17.3,99,81,28,28.93,28.82,4,1,8,0.32
2014-4-27,52.3,44.0,40.1,44.5,40.7,35.3,99,89,61,29.12,28.89,5,1,9,0.15
2014-4-28,61.7,48.7,37.8,36.8,32.7,24.1,85,58,25,29.27,29.05,8,2,11,0.00
2014-4-29,46.2,41.5,39.0,39.4,33.1,29.3,94,72,59,29.58,29.27,8,4,12,0.00
2014-4-30,44.4,40.9,38.7,42.4,38.8,34.4,99,93,78,29.59,29.20,6,3,9,0.51
2014-5-1,67.8,52.3,41.5,66.1,51.5,41.3,99,97,83,29.21,28.72,5,1,8,0.53
2014-5-2,68.9,58.6,48.2,57.3,39.3,22.9,99,57,18,28.88,28.72,5,1,13,0.01
2014-5-3,69.1,58.6,47.8,38.6,32.9,17.5,61,41,16,28.93,27.27,5,1,11,0.00
2014-5-4,60.4,53.9,48.6,44.1,35.2,23.1,79,51,24,28.78,28.61,8,3,23,0.00
2014-5-5,63.9,54.5,46.4,41.3,35.4,28.0,72,50,27,28.93,28.69,6,2,11,0.00
2014-5-6,64.0,53.7,43.2,38.2,24.9,9.0,75,39,13,29.11,28.89,5,1,13,0.00
2014-5-7,69.3,56.7,43.3,25.6,15.6,1.9,43,23,10,29.25,29.11,6,1,10,0.00
2014-5-8,69.6,58.0,45.9,53.8,37.5,15.7,92,50,16,29.25,29.13,5,1,10,0.00
2014-5-9,57.7,55.3,52.3,57.5,54.2,51.0,99,96,85,29.29,29.13,4,1,7,0.02
2014-5-10,81.7,67.3,57.7,69.5,61.0,52.8,99,84,39,29.14,28.80,8,2,18,0.08
2014-5-11,79.9,69.3,60.1,63.1,32.3,10.5,99,37,10,29.10,28.85,6,1,14,0.00
2014-5-12,88.2,73.0,57.7,55.2,31.8,16.7,60,27,10,29.17,29.01,4,1,11,0.00
2014-5-13,69.1,52.3,43.5,54.2,38.8,34.2,75,61,42,29.39,29.09,11,3,16,0.00
2014-5-14,73.8,57.5,42.3,46.0,39.3,29.6,87,57,20,29.39,29.29,5,1,11,0.00
2014-5-15,77.9,66.3,59.4,63.4,59.5,45.3,99,80,53,29.35,29.25,8,1,14,0.00
2014-5-16,68.2,63.7,62.6,65.9,63.4,62.3,99,99,85,29.26,29.02,8,2,19,0.34
2014-5-17,73.8,65.3,55.9,64.5,49.9,28.7,99,65,20,29.13,28.88,8,2,19,0.37
2014-5-18,72.5,59.3,47.5,44.4,33.8,18.5,67,42,16,29.17,29.06,4,0,9,0.37
2014-5-19,66.0,57.1,46.9,44.2,31.3,20.2,69,39,19,29.16,29.07,5,1,11,0.00
2014-5-20,76.5,62.6,51.1,46.1,34.4,16.9,80,42,11,29.09,28.98,4,1,11,0.00
2014-5-21,80.1,62.1,47.3,51.1,42.1,23.3,91,57,14,29.06,28.94,4,1,9,0.00
2014-5-22,66.0,56.6,51.8,57.1,53.1,47.3,99,89,58,29.01,28.93,3,0,7,0.30
2014-5-23,59.2,54.9,50.4,58.9,54.6,50.1,99,99,99,29.04,28.93,2,0,3,0.11
2014-5-24,64.9,56.0,50.0,58.5,51.9,46.2,99,88,53,29.11,29.00,2,0,3,0.15
2014-5-25,71.4,60.0,52.0,61.6,54.6,51.7,99,84,52,29.15,29.06,2,0,5,0.01
2014-5-26,78.3,66.1,53.2,58.2,54.4,48.9,99,70,36,29.07,28.87,3,1,5,0.01
2014-5-27,74.7,55.5,47.7,58.5,51.1,47.4,99,87,51,29.00,28.87,4,2,7,0.11
2014-5-28,49.3,46.9,42.4,49.0,46.7,42.0,99,99,99,29.27,28.93,4,1,8,0.08
2014-5-29,66.9,53.0,38.5,55.0,38.1,22.0,99,66,21,29.30,29.19,4,0,7,0.00
2014-5-30,72.7,58.3,43.9,56.6,47.6,36.6,99,72,28,29.21,29.03,3,0,6,0.20
2014-5-31,65.1,55.9,46.0,56.4,44.1,19.9,99,70,22,29.36,29.09,5,1,8,0.01
2014-6-1,78.8,62.5,43.9,51.4,36.5,16.3,82,47,10,29.40,29.28,4,0,8,0.00
2014-6-2,83.5,69.3,54.1,50.6,41.4,24.6,63,41,13,29.30,29.05,4,1,8,0.00
2014-6-3,85.5,68.6,54.9,60.4,53.6,45.9,92,61,34,29.09,28.92,6,1,14,0.00
2014-6-4,68.0,61.0,53.2,65.1,57.9,41.9,99,90,52,28.96,28.82,2,0,4,0.18
2014-6-5,61.7,60.1,56.7,61.4,59.8,56.2,99,99,99,29.46,28.70,2,0,4,0.47
2014-6-6,75.0,63.7,55.4,62.3,54.5,50.2,99,75,42,28.95,28.76,4,0,11,0.00
2014-6-7,83.7,69.8,55.9,58.2,52.7,45.0,94,59,27,29.01,28.94,4,0,9,0.00
2014-6-8,86.0,74.2,60.4,58.9,50.9,37.2,81,49,18,29.01,28.92,5,0,8,0.00
2014-6-9,80.1,68.7,60.4,60.3,54.7,43.6,80,62,29,29.06,28.96,4,0,11,0.00
2014-6-10,81.5,68.4,61.5,70.3,63.7,57.2,99,86,57,29.16,28.98,4,1,8,0.02
2014-6-11,70.0,62.6,57.7,57.6,52.6,42.9,95,72,39,29.24,29.15,5,1,8,0.00
2014-6-12,68.7,61.8,57.0,64.8,58.5,50.9,99,89,77,29.22,29.11,2,0,4,0.02
2014-6-13,65.3,61.7,59.9,64.3,61.4,59.6,99,99,99,29.11,28.85,2,0,3,0.84
2014-6-14,75.6,64.6,57.7,73.5,61.0,50.6,99,89,64,28.99,28.86,2,0,7,0.01
2014-6-15,79.9,66.4,53.4,57.4,53.3,48.7,99,66,36,29.13,28.97,4,1,12,0.00
2014-6-16,82.8,68.8,55.6,53.0,44.2,27.6,74,47,14,29.21,29.08,4,0,8,0.00
2014-6-17,87.3,74.0,61.3,70.9,61.7,49.5,99,67,40,29.13,28.93,4,1,9,0.00
2014-6-18,86.0,76.2,68.0,71.8,63.6,52.5,99,69,35,29.02,28.80,5,1,14,0.05
2014-6-19,83.3,74.3,63.9,66.2,51.3,27.1,93,50,20,29.04,28.96,3,0,11,0.00
2014-6-20,77.9,66.0,55.0,48.3,37.1,22.7,68,38,14,29.77,28.94,4,1,9,0.00
2014-6-21,76.6,63.8,51.1,47.0,41.7,32.6,75,47,20,29.04,28.93,4,0,9,0.00
2014-6-22,78.1,65.3,52.2,52.5,46.3,40.0,89,54,27,29.10,28.99,4,0,8,0.00
2014-6-23,82.8,67.3,53.4,64.3,50.2,41.0,99,60,25,29.23,29.09,6,1,14,0.00
2014-6-24,83.3,69.6,56.8,58.9,53.6,45.3,93,60,36,29.23,29.05,7,1,14,0.00
2014-6-25,87.1,75.0,64.2,71.6,63.7,-10.8,96,70,49,29.07,28.91,6,2,16,0.00
2014-6-26,81.7,70.8,46.0,77.5,69.4,27.5,99,96,48,29.08,28.85,4,0,10,0.33
2014-6-27,78.8,67.2,57.2,62.5,48.6,32.9,99,59,24,29.28,29.07,2,0,4,0.01
2014-6-28,84.9,71.0,56.8,66.1,49.8,19.7,99,55,10,29.33,29.26,3,0,4,0.00
2014-6-29,86.4,72.5,59.0,61.0,55.0,42.3,91,59,22,29.33,29.16,5,1,11,0.00
2014-6-30,88.7,73.8,50.5,62.0,56.8,38.7,91,58,29,29.65,29.08,5,1,12,2.30
2014-7-1,88.9,77.7,67.1,71.9,66.1,57.8,99,69,48,29.30,29.15,6,1,16,0.00
2014-7-2,91.6,79.6,71.1,74.1,70.1,63.8,99,75,50,29.28,29.16,7,1,20,0.00
2014-7-3,92.3,80.1,69.3,77.7,71.6,66.0,99,79,43,29.38,29.22,6,1,17,0.39
2014-7-4,72.9,68.5,66.2,72.6,68.2,65.9,99,99,99,29.34,29.28,2,0,4,0.01
2014-7-5,79.3,68.7,56.8,62.5,49.4,35.2,99,58,21,29.37,29.15,3,1,8,0.13
2014-7-6,84.2,73.3,61.7,58.8,47.7,39.3,68,43,21,29.37,29.22,3,1,9,0.00
2014-7-7,87.3,79.8,67.5,70.5,64.8,59.2,96,62,42,29.83,29.04,6,2,20,0.01
2014-7-8,90.3,78.5,69.6,71.0,67.6,62.5,99,72,41,29.15,29.03,7,1,17,0.01
2014-7-9,88.5,78.6,69.8,70.8,63.0,51.6,97,63,29,29.29,29.00,7,1,14,0.00
2014-7-10,82.2,73.0,65.1,63.4,56.5,40.6,90,59,26,29.50,29.29,3,0,6,0.00
2014-7-11,80.6,70.4,61.9,59.7,54.9,45.4,90,62,30,29.57,29.49,3,0,5,0.00
2014-7-12,88.3,74.0,59.5,66.8,56.3,44.4,99,60,24,29.57,29.46,4,0,8,0.00
2014-7-13,85.5,74.8,66.4,69.9,61.4,55.4,99,65,38,29.48,29.25,8,2,17,0.13
2014-7-14,85.1,74.7,69.8,78.6,71.4,69.2,99,91,61,29.26,29.19,4,1,11,0.07
2014-7-15,86.0,78.6,70.9,79.4,74.8,70.4,99,89,68,29.21,29.09,8,2,17,0.26
2014-7-16,77.4,72.3,67.1,77.1,72.0,66.8,99,99,96,29.21,29.10,3,0,8,0.32
2014-7-17,82.6,71.2,62.8,66.8,59.3,47.4,99,71,30,29.43,29.21,4,0,8,0.00
2014-7-18,81.3,69.8,59.2,64.9,55.9,-23.1,99,68,24,29.58,29.42,97,0,6,0.00
2014-7-19,78.4,68.1,60.4,68.9,62.6,57.8,99,84,53,29.62,29.55,2,0,4,0.00
2014-7-20,78.3,67.3,59.7,66.3,57.7,47.9,99,75,35,29.57,29.48,2,0,4,0.00
2014-7-21,81.5,69.0,58.3,69.5,59.2,51.5,99,75,38,29.56,29.48,3,0,5,0.00
2014-7-22,91.2,76.4,63.0,71.0,64.0,55.0,99,71,30,29.50,29.34,4,1,9,0.00
2014-7-23,91.0,78.7,69.1,72.2,69.4,65.7,99,75,44,29.35,29.10,6,1,12,0.00
2014-7-24,78.1,71.4,64.2,71.9,67.3,60.1,99,87,68,29.26,29.10,2,0,6,0.01
2014-7-25,82.4,69.9,55.8,64.3,55.6,47.7,99,66,32,29.34,29.25,4,0,8,0.00
2014-7-26,84.6,71.8,60.8,66.3,58.3,45.0,99,68,27,29.34,29.23,5,1,11,0.00
2014-7-27,78.8,71.4,65.8,76.8,70.6,65.6,99,97,80,29.26,29.00,5,1,12,0.22
2014-7-28,83.1,73.6,67.1,76.4,68.0,60.1,99,84,60,29.03,28.80,5,1,12,0.37
2014-7-29,77.9,66.8,61.9,64.7,57.2,49.9,92,73,39,29.27,28.90,2,0,7,0.00
2014-7-30,79.2,70.8,55.6,61.8,49.4,38.4,99,50,24,29.39,29.29,3,0,8,0.00
2014-7-31,82.0,70.4,58.5,66.6,56.3,48.5,99,65,33,29.51,29.39,6,1,12,0.00
2014-8-1,85.8,72.8,63.5,71.1,64.5,59.5,99,78,43,29.58,29.50,5,0,11,0.00
2014-8-2,70.5,66.7,61.7,68.8,64.4,57.6,99,93,69,29.57,29.46,3,0,6,0.00
2014-8-3,75.2,66.0,0.0,68.3,62.4,59.1,99,87,64,29.49,29.37,3,0,5,0.00
2014-8-4,86.4,73.6,63.3,71.2,64.5,57.2,99,77,38,29.39,29.33,4,0,8,0.01
2014-8-5,89.1,76.7,64.9,72.8,62.4,48.7,99,68,27,29.39,29.24,4,0,8,0.00
2014-8-6,81.3,72.1,63.5,70.8,59.8,46.5,93,68,35,29.26,29.13,3,0,6,0.11
2014-8-7,81.0,66.9,58.6,62.4,52.2,45.6,80,61,30,29.31,29.19,4,0,10,0.04
2014-8-8,83.7,69.0,56.1,59.2,51.3,41.8,93,59,23,29.39,29.28,2,0,7,0.00
2014-8-9,86.4,72.8,61.2,58.5,51.7,39.7,77,52,20,29.44,29.36,4,0,7,0.00
2014-8-10,86.0,73.3,63.0,59.8,51.5,34.4,84,53,18,29.47,29.42,2,0,5,0.00
2014-8-11,88.3,71.1,65.3,64.0,56.4,44.7,75,63,22,29.50,29.43,6,0,11,0.01
2014-8-12,82.4,71.0,61.9,69.4,59.7,48.1,99,71,31,29.47,29.35,4,1,12,0.00
2014-8-13,69.6,67.0,62.6,69.4,66.1,62.3,99,97,83,29.35,28.96,5,1,10,1.63
2014-8-14,75.7,65.3,57.2,63.7,52.8,40.9,99,69,30,29.22,29.02,4,0,10,0.01
2014-8-15,122.5,63.0,58.5,58.1,52.7,47.0,91,71,10,29.28,29.17,3,0,7,0.04
2014-8-16,77.5,66.2,56.1,56.0,51.2,24.5,93,62,29,29.34,29.25,5,0,11,0.00
2014-8-17,80.2,68.8,60.4,65.8,57.3,49.8,99,70,42,29.26,29.11,3,0,8,0.01
2014-8-18,78.1,65.8,56.1,58.1,49.3,36.4,92,60,25,29.24,29.13,4,0,8,0.00
2014-8-19,80.2,68.5,53.1,54.1,46.4,35.4,90,52,23,29.30,29.21,3,0,6,0.00
2014-8-20,82.4,75.4,63.1,62.7,46.6,41.7,69,37,28,29.41,29.30,3,1,6,0.00
2014-8-21,74.5,65.6,63.1,63.4,52.6,48.6,90,63,52,29.45,29.37,2,0,3,0.00
2014-8-22,72.0,65.0,50.5,69.0,62.2,40.0,99,91,66,29.55,29.30,3,0,4,5.17
2014-8-23,72.9,64.4,57.6,64.5,58.5,8.6,99,83,10,29.38,29.32,2,0,4,0.00
2014-8-24,79.7,66.5,54.5,64.7,56.1,49.9,99,74,36,29.40,29.34,2,0,4,0.00
2014-8-25,87.6,73.6,62.4,64.7,58.0,48.2,87,63,27,29.42,29.34,2,0,6,0.00
2014-8-26,88.2,74.4,62.8,69.4,63.4,56.0,99,73,35,29.41,29.29,3,0,9,0.00
2014-8-27,88.3,75.1,65.3,71.3,65.4,61.2,99,74,46,29.31,29.09,4,1,11,0.05
2014-8-28,79.3,69.7,59.7,71.0,58.0,47.6,99,70,36,29.26,29.05,3,0,8,0.01
2014-8-29,77.5,64.2,53.8,55.5,50.6,45.6,88,64,35,29.52,29.24,3,0,5,0.00
2014-8-30,78.1,65.4,54.0,64.5,55.7,47.3,99,75,35,29.55,29.38,5,1,12,0.00
2014-8-31,82.8,73.6,64.2,75.3,70.3,-20.3,99,90,69,29.39,29.20,99,1,103,0.20
2014-9-1,88.2,77.9,69.1,76.4,69.2,64.3,99,77,46,29.25,29.16,3,0,9,0.01
2014-9-2,83.8,79.1,50.5,75.8,70.2,40.0,99,75,67,29.82,29.05,3,0,7,4.62
2014-9-3,82.8,73.5,64.8,74.2,62.0,49.2,99,71,34,29.62,29.24,3,1,11,0.00
2014-9-4,86.7,72.3,59.7,61.8,56.3,46.7,95,62,26,29.72,29.61,4,0,9,0.00
2014-9-5,88.0,76.1,64.4,74.6,66.0,59.5,99,74,44,29.69,29.50,6,1,12,0.00
2014-9-6,89.1,78.7,69.6,78.4,72.0,64.4,99,82,54,29.51,29.29,8,1,14,0.00
2014-9-7,78.8,68.0,59.2,66.2,54.8,31.3,99,69,18,29.73,29.44,4,0,8,0.06
2014-9-8,75.2,62.7,52.5,58.3,48.8,34.3,99,66,25,29.90,29.73,3,1,5,0.00
2014-9-9,70.5,61.3,52.9,58.4,51.6,43.3,99,73,41,29.88,29.72,3,0,5,0.00
2014-9-10,76.1,63.2,57.0,63.3,57.8,51.9,99,85,45,29.72,29.55,2,0,5,0.00
2014-9-11,77.9,68.7,61.2,70.3,64.4,55.6,99,87,66,29.56,29.30,4,1,18,0.00
2014-9-12,74.1,62.6,52.5,55.8,48.0,40.1,95,63,30,29.76,29.43,3,0,8,0.00
2014-9-13,64.9,56.4,46.4,57.8,50.1,42.4,99,81,60,29.81,29.63,2,0,4,0.17
2014-9-14,68.4,56.6,46.8,57.5,46.9,40.1,99,74,37,29.76,29.62,3,0,7,0.01
2014-9-15,67.5,53.9,42.8,50.4,42.6,36.6,96,69,33,29.76,29.61,4,0,11,0.00
2014-9-16,65.5,57.3,50.0,55.7,51.0,44.7,94,80,62,29.62,29.47,2,0,7,0.00
2014-9-17,72.7,58.8,20.8,54.0,44.0,-18.3,97,65,19,29.54,29.45,102,1,106,0.00
2014-9-18,75.6,57.3,51.3,47.0,43.2,35.5,74,62,26,29.66,29.45,2,0,5,0.00
2014-9-19,61.5,50.2,20.5,42.6,29.9,-27.3,73,49,10,29.94,29.66,2,0,6,0.00
2014-9-20,71.8,56.7,40.5,55.6,45.3,31.9,89,67,44,29.91,29.61,6,1,14,0.00
2014-9-21,79.9,68.6,58.6,77.5,67.2,55.4,99,95,78,29.61,29.08,5,0,14,0.04
2014-9-22,72.3,63.7,47.3,68.1,49.4,34.9,99,65,28,29.61,29.06,6,1,17,0.02
2014-9-23,71.8,55.6,41.7,47.8,39.6,31.4,89,60,23,29.95,29.60,5,0,8,0.00
2014-9-24,69.6,57.5,47.3,56.8,49.5,4.9,99,77,44,30.13,29.94,2,1,50,0.00
2014-9-25,61.3,54.8,48.9,56.4,51.6,48.7,99,89,74,30.06,29.76,2,0,4,0.00
2014-9-26,73.0,57.5,51.1,55.9,52.9,48.5,99,87,42,29.77,29.65,2,0,4,0.00
2014-9-27,84.9,68.6,55.8,59.5,52.0,31.9,93,63,15,29.71,29.63,4,0,8,0.00
2014-9-28,88.0,71.3,58.6,67.0,59.0,53.4,99,71,32,29.68,29.49,4,0,8,0.00
2014-9-29,77.7,65.3,56.8,66.8,60.2,55.0,99,86,48,29.54,29.43,3,1,5,0.00
2014-9-30,58.1,56.0,54.5,57.8,55.7,54.2,99,99,99,29.57,29.50,2,1,4,0.00
2014-10-1,57.7,55.9,55.2,57.5,55.6,55.0,99,99,99,29.63,29.53,3,1,6,0.00
2014-10-2,56.1,53.7,47.7,55.9,53.4,47.4,99,99,99,29.70,29.61,3,1,6,0.01
2014-10-3,60.4,51.9,43.3,57.7,49.4,43.1,99,92,70,29.66,29.42,3,0,5,0.00
2014-10-4,63.9,57.2,52.2,63.6,57.0,51.9,99,99,99,29.42,29.04,3,1,8,0.00
2014-10-5,62.2,52.6,43.2,58.9,40.3,22.6,99,69,24,29.47,29.08,4,0,9,0.00
2014-10-6,67.8,53.0,39.9,50.0,38.8,28.5,94,64,23,29.65,29.47,8,1,13,0.00
2014-10-7,74.1,62.7,50.2,66.8,54.9,45.6,99,79,37,29.65,29.49,8,1,19,0.00
2014-10-8,73.6,64.0,56.1,64.7,51.4,36.6,99,69,28,29.49,29.22,8,1,14,0.01
2014-10-9,66.0,55.3,46.4,39.2,32.8,21.1,71,45,20,29.52,29.39,6,1,17,0.01
2014-10-10,63.1,52.8,45.3,39.8,35.1,30.1,75,53,29,29.65,29.52,3,0,8,0.00
2014-10-11,49.3,45.9,42.8,49.0,44.0,37.8,99,93,71,29.65,29.57,2,0,3,0.01
2014-10-12,62.6,49.0,39.7,52.3,40.0,32.6,99,76,34,29.82,29.64,3,0,7,0.00
2014-10-13,62.1,51.7,39.7,54.2,46.9,38.9,99,85,62,29.87,29.77,4,0,7,0.00
2014-10-14,76.6,66.6,57.0,67.8,60.8,53.6,99,83,53,29.78,29.65,7,1,15,0.00
2014-10-15,79.2,69.1,61.9,74.2,65.5,61.6,99,90,59,29.67,29.46,7,1,16,0.00
2014-10-16,70.7,67.9,60.1,70.4,67.6,59.8,99,99,99,29.47,29.17,5,1,14,0.22
2014-10-17,72.7,63.0,58.1,65.4,55.6,45.7,99,80,41,29.21,29.12,4,1,11,0.00
2014-10-18,70.0,59.9,54.1,66.8,57.1,51.0,99,91,60,29.18,29.00,5,1,14,0.18
2014-10-19,55.6,49.6,40.8,51.0,34.5,23.0,95,59,32,29.48,29.12,4,1,12,0.00
2014-10-20,57.4,44.9,33.3,37.9,26.9,16.7,72,52,21,29.57,29.47,4,0,8,0.00
2014-10-21,63.9,52.4,43.3,56.3,48.1,37.7,99,86,63,29.51,29.39,3,1,5,0.00
2014-10-22,52.9,49.8,47.8,52.6,49.6,47.6,99,99,99,29.53,29.30,9,3,15,0.99
2014-10-23,51.8,49.3,46.4,51.5,49.1,46.1,99,99,99,29.35,29.12,6,2,11,1.65
2014-10-24,52.2,49.3,44.8,51.9,47.8,22.3,99,95,84,29.26,29.18,3,1,7,0.06
2014-10-25,64.2,52.9,42.4,46.5,41.0,28.3,99,69,28,29.29,29.00,4,1,10,0.00
2014-10-26,58.3,51.1,43.5,44.5,37.7,31.3,82,61,38,29.23,28.96,5,1,11,0.00
2014-10-27,63.1,51.7,43.5,37.9,34.3,28.2,75,54,27,29.54,29.22,5,1,13,0.00
2014-10-28,71.8,54.5,41.4,56.5,44.7,34.4,99,72,40,29.58,29.44,4,0,11,0.00
2014-10-29,74.5,58.9,48.9,67.7,53.5,-25.6,99,84,48,29.44,29.27,4,0,8,0.09
2014-10-30,59.4,48.2,40.6,47.8,36.5,28.6,96,67,36,29.50,29.39,3,0,8,0.00
2014-10-31,52.0,45.4,39.6,39.1,34.7,30.7,90,68,50,29.56,29.46,4,1,8,0.00
2014-11-1,45.5,41.2,37.2,42.5,35.6,27.8,99,82,56,29.46,29.29,6,2,12,0.47
2014-11-2,41.2,38.6,36.7,38.0,21.7,-3.5,99,57,17,29.35,29.13,8,3,16,0.02
2014-11-3,52.3,42.9,33.1,21.5,4.7,-8.4,38,22,10,29.57,29.34,8,1,13,0.00
2014-11-4,63.9,53.1,42.1,33.7,14.7,2.8,46,24,10,29.64,29.50,4,1,10,0.00
2014-11-5,65.8,56.2,45.5,43.3,30.5,18.5,66,39,17,29.64,29.47,4,1,10,0.00
2014-11-6,48.2,46.2,44.6,46.5,39.2,25.4,99,79,42,29.63,29.00,5,0,7,0.46
2014-11-7,48.7,43.0,37.8,45.6,34.7,20.5,99,75,48,29.31,28.98,8,2,14,0.02
2014-11-8,48.7,39.4,31.6,25.1,16.3,4.3,59,41,17,29.48,29.31,3,1,9,0.00
2014-11-9,55.6,45.6,38.1,30.1,25.7,20.4,59,47,28,29.52,29.38,3,1,9,0.00
2014-11-10,59.7,46.6,34.2,31.0,22.9,6.4,74,44,12,29.71,29.52,4,0,7,0.00
2014-11-11,63.9,51.2,38.1,54.6,44.2,30.9,99,79,48,29.70,29.48,6,1,12,0.00
2014-11-12,62.8,53.6,41.9,61.1,48.6,27.8,99,85,52,29.52,29.35,4,1,8,0.00
2014-11-13,50.4,42.1,32.9,31.4,21.5,11.3,88,47,21,29.59,29.46,3,0,6,0.11
2014-11-14,43.3,34.7,29.7,36.6,23.0,7.8,99,67,25,29.61,29.41,4,1,17,0.28
2014-11-15,39.7,30.7,24.3,19.9,10.0,-1.8,71,45,18,29.85,29.60,4,1,8,0.00
2014-11-16,41.0,34.0,25.0,20.6,14.7,6.2,57,45,24,29.88,29.63,5,0,9,0.00
2014-11-17,43.0,37.1,34.0,42.7,34.1,19.5,99,90,47,29.63,28.94,4,1,6,1.26
2014-11-18,43.3,33.0,23.5,43.1,8.9,-18.5,99,46,11,29.44,28.98,7,2,13,0.01
2014-11-19,35.4,26.7,20.1,4.9,-6.7,-18.7,36,24,10,29.65,29.43,8,2,14,0.00
2014-11-20,46.9,35.2,28.2,10.9,3.8,-9.8,42,29,10,29.57,29.25,9,2,18,0.00
2014-11-21,34.5,27.8,23.9,9.0,-3.5,-16.9,51,27,12,29.93,29.42,8,2,17,0.00
2014-11-22,42.6,32.1,18.9,9.3,-1.7,-14.8,52,27,10,29.94,29.57,8,2,19,0.00
2014-11-23,60.1,48.0,40.8,27.3,18.3,7.2,50,31,18,29.67,29.57,6,1,13,0.00
2014-11-24,64.9,56.6,39.0,64.7,54.2,23.6,99,92,51,29.59,29.09,12,3,27,0.52
2014-11-25,63.0,55.4,44.8,57.1,31.9,3.3,99,49,11,29.64,29.21,6,2,12,0.00
2014-11-26,45.1,36.9,31.8,33.8,29.0,22.1,99,77,40,29.72,29.19,3,0,5,0.13
2014-11-27,35.4,31.9,28.6,35.0,31.7,28.3,99,99,99,29.52,29.20,2,0,5,0.00
2014-11-28,33.8,28.6,22.6,29.4,20.9,13.0,99,75,47,29.72,29.49,5,1,13,0.01
2014-11-29,34.9,26.4,17.8,17.1,11.3,3.9,77,55,28,29.85,29.71,4,0,8,0.01
2014-11-30,55.4,44.5,29.8,38.7,30.4,16.1,85,59,31,29.76,29.55,8,2,16,0.28
2014-12-1,62.8,50.2,38.1,39.8,34.1,16.7,68,55,40,29.95,29.52,5,2,12,0.00
2014-12-2,38.1,33.4,30.6,34.5,18.8,8.4,99,57,37,30.20,29.88,7,2,10,0.02
2014-12-3,48.4,40.1,33.3,48.1,38.6,20.3,99,95,51,29.88,29.39,8,2,15,0.27
2014-12-4,43.0,34.9,26.4,20.6,12.8,2.1,59,42,18,30.05,29.60,5,1,13,0.00
2014-12-5,39.4,30.5,21.0,32.4,17.2,10.3,94,59,37,30.18,29.93,3,1,5,0.22
2014-12-6,38.7,36.2,33.6,38.4,35.9,32.4,99,99,94,29.93,29.65,4,1,9,0.91
2014-12-7,36.0,29.9,17.8,35.4,8.7,-13.2,99,48,13,30.18,29.74,6,3,12,0.05
2014-12-8,23.4,19.6,16.0,19.4,4.4,-11.1,85,53,29,30.25,29.99,4,2,8,0.00
2014-12-9,40.3,33.6,23.2,39.8,33.0,19.4,99,98,85,30.00,29.03,8,2,14,1.98
2014-12-10,38.8,36.9,35.8,38.6,36.7,35.5,99,99,99,29.09,28.95,5,2,8,0.13
2014-12-11,35.8,32.1,29.7,35.5,31.9,28.4,99,99,96,29.30,28.95,4,0,6,0.02
2014-12-12,37.4,31.5,26.8,28.7,25.3,22.5,99,79,57,29.40,29.30,4,1,10,0.01
2014-12-13,39.7,33.6,29.3,23.7,21.6,19.7,75,62,45,29.38,29.29,4,2,11,0.00
2014-12-14,45.0,34.4,29.1,24.9,22.4,20.0,77,62,38,29.42,29.29,4,1,8,0.00
2014-12-15,44.2,33.9,27.7,28.3,23.1,19.7,83,66,40,29.65,29.42,2,1,5,0.00
2014-12-16,37.6,33.2,27.1,35.2,29.0,21.7,97,84,78,29.66,29.42,3,0,4,0.07
2014-12-17,46.9,40.7,34.9,46.5,38.3,29.7,99,92,70,29.43,29.20,6,2,14,0.35
2014-12-18,41.2,37.6,33.8,32.3,25.4,22.2,92,62,49,29.38,29.23,8,2,17,0.04
2014-12-19,35.1,31.9,25.5,22.8,17.7,13.7,63,55,47,29.65,29.37,4,1,10,0.00
2014-12-20,36.3,29.0,22.6,21.6,17.6,14.7,77,63,44,29.81,29.65,2,1,5,0.00
2014-12-21,32.0,30.6,28.6,26.1,24.2,21.6,84,77,69,29.87,29.77,2,1,4,0.00
2014-12-22,39.6,35.0,31.1,37.0,29.5,24.4,99,81,66,29.90,29.77,3,0,4,0.01
2014-12-23,43.7,40.7,36.5,43.4,40.4,36.2,99,99,99,29.78,29.65,6,2,9,0.13
2014-12-24,42.3,40.3,38.5,41.6,40.0,38.2,99,99,99,29.66,29.06,4,1,5,0.50
2014-12-25,60.3,50.6,41.2,59.8,37.2,17.4,99,66,27,29.48,28.98,8,3,24,0.17
2014-12-26,49.3,41.9,35.6,25.3,21.9,19.0,62,45,30,29.68,29.48,8,2,11,0.00
2014-12-27,52.7,42.7,36.9,27.8,24.2,21.7,58,49,31,29.73,29.53,4,1,10,0.00
2014-12-28,50.2,44.5,36.1,40.3,28.4,19.0,78,54,43,29.53,29.28,8,2,18,0.01
2014-12-29,41.0,33.9,26.8,19.3,8.4,-4.8,58,36,14,29.71,29.50,6,1,11,0.00
2014-12-30,30.4,23.7,18.3,2.1,-10.2,-26.9,42,24,10,29.86,29.71,4,1,8,0.00
2014-12-31,28.8,20.1,15.1,0.1,-8.3,-23.7,45,30,10,29.82,29.61,5,1,14,0.00
2015-1-1,32.0,24.9,16.9,1.4,-9.4,-20.7,39,23,10,29.62,29.41,8,2,18,0.00
2015-1-2,40.8,33.0,28.6,4.6,0.1,-9.1,30,24,13,29.95,29.43,8,2,14,0.00